Startseite
Über Mich
AHP4
Galerie
Sehschlangen
Tourenbuch
Bookmarks
Elektronik
Bewertung
Geschichten
[Tagesmessung] [Jahreswerte] [Information]

Messwerte vom 16.06.2022

Die letzten Messwerte von 23:58:47 Uhr:
KategorieMesswert
Temperatur [°C]15
Luftdruck [mBar]1008
Sonneneinstrahlung0
Wind [km/h]0 aus Südost
Niederschlag [l/m²]0
rel.Luftfeucht.62.1%
CO2 [ppm]480

Diagramme
Messwerte vom 16.06.2022
Tagesaggregation
KategorieMinimumMaximumSchnittSumme
Temperatur [°C]122919.0917
Luftdruck [mBar]100110081003.9479
Sonneneinstrahlung247144.3979
Wind [km/h]20
rF [%]26.982.655.71
Niederschlag [l/m²]0
CO2 [ppm]407970537.2
Einordnung alsVegetationstag
Sommertag

Messungen an benachbarten Tagen: Zur Jahresaggregation 2022
Tabelle aller Messwerte
UhrzeitTemperatur [°C]Luftdruck [mBar]SonneWind [km/h]RichtungRegen [l/m²]rF [%]CO2 [ppm]
00:01:49 17 1002 0 6 NW 0 61.3 970
00:04:46 17 1002 0 2 0 61.5 962
00:07:49 17 1002 0 5 N 0 61.4 959
00:10:51 17 1002 0 5 NO 0 62.5 924
00:13:46 17 1001 0 10 O 0 62.7 835
00:16:49 17 1002 0 2 NW 0 63.1 767
00:19:49 17 1002 0 8 NW 0 63.1 793
00:22:47 17 1002 0 19 NW 0 63.3 861
00:25:49 17 1002 0 0 SO 0 64.2 858
00:28:45 17 1002 0 1 O 0 63.7 797
00:31:48 16 1002 0 10 N 0 63.8 764
00:34:48 16 1002 0 2 N 0 64.6 801
00:37:47 16 1002 0 4 N 0 65.1 797
00:40:49 16 1002 0 1 NW 0 65.4 791
00:43:47 16 1002 0 4 W 0 65.6 756
00:46:48 16 1002 0 2 NO 0 66 749
00:49:49 16 1002 0 0 SW 0 65.9 744
00:52:47 16 1002 0 3 SW 0 66 735
00:55:47 16 1002 0 3 W 0 66.8 744
00:58:45 16 1002 0 1 O 0 67.1 767
01:01:47 16 1002 0 9 NO 0 67 779
01:04:45 16 1002 0 3 N 0 67.4 778
01:07:48 16 1002 0 4 NW 0 67.2 765
01:10:45 16 1002 0 0 O 0 67.4 730
01:13:46 15 1002 0 2 O 0 67.7 718
01:16:48 15 1002 0 1 N 0 68.4 709
01:19:48 15 1002 0 0 SO 0 68.3 709
01:22:46 15 1001 0 3 N 0 68.8 723
01:25:47 15 1002 0 0 NO 0 69.2 729
01:28:45 15 1002 0 1 N 0 69.2 714
01:31:47 15 1002 0 2 NO 0 69.3 705
01:34:51 15 1002 0 3 NW 0 69.6 702
01:37:46 15 1002 0 1 W 0 69.7 714
01:40:44 15 1002 0 1 N 0 69.7 706
01:43:49 15 1002 0 4 NO 0 69.5 695
01:46:46 15 1002 0 0 NO 0 70 677
01:49:48 15 1002 0 2 NW 0 70.2 672
01:52:46 15 1002 0 2 N 0 70.5 670
01:55:46 15 1002 0 1 NO 0 70.6 684
01:58:47 15 1002 0 5 NW 0 70.9 680
02:01:49 15 1002 0 0 NW 0 70.9 674
02:04:47 15 1002 0 5 NO 0 70.8 667
02:07:49 15 1002 0 5 NW 0 70.7 667
02:10:46 15 1002 0 2 W 0 70.6 664
02:13:46 15 1002 0 3 NO 0 70.6 665
02:16:48 15 1002 0 2 SO 0 70.6 667
02:19:48 15 1002 0 1 O 0 70.8 662
02:22:47 15 1002 0 3 NO 0 70.8 653
02:25:44 15 1002 0 2 0 70.6 650
02:28:48 14 1002 0 3 N 0 71 656
02:31:49 14 1002 0 5 N 0 71.1 653
02:34:47 14 1002 0 3 N 0 71.1 644
02:37:48 14 1002 0 2 NW 0 71.5 641
02:40:46 14 1002 0 3 0 71.6 641
02:43:45 14 1002 0 1 N 0 71.7 635
02:46:48 14 1002 0 3 NW 0 71.9 631
02:49:48 14 1002 0 0 NO 0 72.1 629
02:52:49 14 1002 0 3 NO 0 72.1 629
02:55:46 14 1002 0 1 NW 0 72.7 632
02:58:49 14 1002 0 1 NW 0 72.9 635
03:01:45 14 1002 0 0 O 0 73.4 638
03:04:47 14 1002 0 0 NW 0 73.1 638
03:07:50 14 1002 0 0 NW 0 73.2 635
03:10:46 14 1002 0 7 W 0 73.1 629
03:13:47 14 1002 0 2 N 0 74.1 625
03:16:47 13 1002 0 2 N 0 73.1 632
03:19:46 14 1002 0 0 W 0 73.4 632
03:22:46 14 1002 0 0 N 0 73.6 634
03:25:45 13 1002 0 0 O 0 73.3 629
03:28:48 13 1002 0 3 N 0 73.3 621
03:31:46 13 1002 0 2 S 0 73.6 609
03:34:48 13 1002 0 0 O 0 73.9 622
03:37:45 13 1002 0 2 NO 0 73.7 622
03:40:49 13 1002 0 1 NO 0 73.5 629
03:43:47 13 1002 0 4 NO 0 73.7 629
03:46:46 13 1002 0 0 O 0 74.2 639
03:49:47 13 1002 0 1 N 0 73.9 635
03:52:47 13 1001 0 1 NW 0 74.4 644
03:55:46 13 1002 0 2 N 0 74.5 638
03:58:47 13 1002 0 4 NW 0 75 632
04:01:46 13 1002 0 1 NW 0 75.6 623
04:04:48 13 1002 0 0 SO 0 75.8 621
04:07:47 13 1002 0 0 NW 0 74.8 620
04:10:48 13 1002 0 0 NW 0 74.7 620
04:13:47 13 1002 0 0 NW 0 75.2 620
04:16:48 13 1002 0 0 NW 0 75.9 620
04:19:48 13 1002 0 0 O 0 76 615
04:22:48 13 1002 0 0 SO 0 75.7 574
04:25:46 13 1002 0 0 SO 0 75.9 578
04:28:51 12 1002 3 1 NW 0 76.9 574
04:31:47 12 1002 3 0 NW 0 77 577
04:34:48 12 1002 5 0 NW 0 76.6 577
04:37:49 12 1002 9 0 SO 0 77.1 580
04:40:49 12 1002 13 0 SO 0 76.9 583
04:43:46 12 1002 18 0 N 0 77.2 577
04:46:45 12 1002 23 0 O 0 77.7 577
04:49:49 12 1002 29 0 SO 0 77.4 571
04:52:48 12 1002 38 0 S 0 78.1 586
04:55:48 12 1002 50 0 SW 0 78.5 592
04:58:48 12 1002 60 0 SW 0 78.6 597
05:01:48 12 1002 68 0 SO 0 79.1 594
05:04:49 12 1002 75 0 SO 0 78.1 586
05:07:47 12 1002 81 0 SO 0 78 580
05:10:48 12 1002 84 0 SO 0 77.7 585
05:13:48 12 1002 87 0 SO 0 78.1 589
05:16:48 12 1002 92 0 SO 0 78.1 591
05:19:50 12 1002 99 0 SO 0 77.9 588
05:22:47 12 1002 105 0 S 0 79.5 586
05:25:48 12 1002 111 0 S 0 80.4 588
05:28:48 12 1002 115 0 S 0 80.4 583
05:31:49 12 1002 119 0 NW 0 81 579
05:34:50 12 1002 122 1 NW 0 81.4 582
05:37:49 12 1002 128 2 N 0 82 592
05:40:46 12 1002 135 0 S 0 82.6 591
05:43:48 12 1002 145 0 S 0 82.5 587
05:46:49 12 1002 147 0 O 0 81.6 576
05:49:48 12 1002 151 0 S 0 81 575
05:52:48 12 1002 155 0 SO 0 80.7 574
05:55:49 12 1002 159 0 SO 0 80.4 584
05:58:51 12 1002 162 0 NW 0 80.2 588
06:01:49 12 1002 160 0 NW 0 80.5 582
06:04:51 12 1002 160 0 NW 0 81.1 583
06:07:51 12 1002 162 0 NW 0 80.8 582
06:10:50 12 1002 166 0 NW 0 80.3 580
06:13:50 12 1002 169 0 NW 0 80.1 585
06:16:48 12 1002 172 0 NW 0 79.9 586
06:19:48 12 1002 173 0 NW 0 80.1 594
06:22:50 13 1002 176 0 NW 0 80.2 594
06:25:50 13 1002 180 0 N 0 80.1 592
06:28:52 13 1002 180 2 NW 0 79.8 597
06:31:48 13 1002 179 0 NW 0 79.7 597
06:34:48 13 1002 179 0 SW 0 79.6 597
06:37:51 13 1002 181 0 SW 0 79.2 600
06:40:49 13 1002 185 0 SW 0 79.3 592
06:43:50 13 1002 188 0 SO 0 79.3 600
06:46:54 13 1002 190 0 SW 0 79 598
06:49:47 13 1002 191 0 S 0 79 600
06:52:47 13 1002 193 0 S 0 79.2 607
06:55:50 13 1002 195 1 NW 0 80 579
06:58:48 13 1002 196 1 N 0 80.5 506
07:01:49 13 1002 197 0 NO 0 81 469
07:04:47 13 1002 196 2 N 0 80.6 463
07:07:48 13 1002 195 2 NW 0 79.8 466
07:10:46 14 1002 191 1 N 0 79.5 478
07:13:49 14 1002 190 0 O 0 78.6 500
07:16:49 14 1002 191 0 NW 0 78.4 521
07:19:50 14 1002 193 0 SO 0 77.2 544
07:22:47 14 1002 196 2 NW 0 76.8 550
07:25:49 14 1002 197 0 W 0 76.8 545
07:28:48 14 1002 199 0 W 0 77.2 542
07:31:46 15 1002 199 0 S 0 76.5 538
07:34:50 15 1002 199 0 SO 0 75.7 539
07:37:49 15 1002 199 0 NW 0 75.2 548
07:40:49 15 1002 201 2 N 0 74.3 556
07:43:47 16 1002 203 0 N 0 73.6 556
07:46:48 17 1002 202 0 N 0 70.8 553
07:49:49 18 1002 201 0 W 0 67 548
07:52:50 19 1002 201 0 N 0 63.8 547
07:55:48 19 1003 202 6 W 0 63.2 547
07:58:50 19 1002 199 5 NW 0 60.6 548
08:01:50 20 1002 198 5 NO 0 58.8 554
08:04:48 20 1002 197 4 NW 0 57.6 557
08:07:50 20 1003 198 3 NW 0 56.5 553
08:10:50 19 1002 201 3 NW 0 56.5 551
08:13:48 18 1003 203 4 NW 0 58.2 559
08:16:49 17 1002 206 10 W 0 60.8 556
08:19:49 17 1003 209 3 N 0 62.4 559
08:22:50 17 1003 210 10 NO 0 63.7 553
08:25:47 17 1002 211 5 N 0 64.4 548
08:28:50 17 1002 213 1 NO 0 63.4 547
08:31:48 17 1003 215 1 NO 0 62.7 536
08:34:50 17 1003 216 7 NW 0 63 536
08:37:48 18 1002 215 11 W 0 63.8 533
08:40:48 18 1003 213 2 NW 0 63.6 533
08:43:49 18 1003 213 2 NW 0 64.6 530
08:46:48 18 1003 213 0 S 0 64 536
08:49:46 18 1003 212 6 N 0 63.9 535
08:52:48 18 1002 213 3 0 62.1 538
08:55:48 17 1003 214 10 N 0 62.5 538
08:58:47 17 1002 213 8 N 0 62.9 533
09:01:49 17 1003 207 7 NW 0 63.6 526
09:04:49 17 1003 202 4 NW 0 64.5 532
09:07:48 17 1003 199 11 N 0 65.6 536
09:10:51 17 1002 193 5 NW 0 63.3 536
09:13:49 17 1003 192 10 NW 0 63.3 527
09:16:48 17 1003 194 3 NW 0 63.4 524
09:19:47 17 1003 198 12 N 0 64.5 524
09:22:48 17 1003 199 4 N 0 62.9 527
09:25:48 17 1003 196 10 W 0 62.3 521
09:28:48 17 1003 201 7 NW 0 61.6 518
09:31:48 17 1004 212 6 N 0 61.1 518
09:34:48 18 1003 215 3 NW 0 61.4 521
09:37:50 18 1004 215 5 NW 0 61.2 518
09:40:47 18 1004 217 4 N 0 59.7 518
09:43:47 18 1003 216 8 N 0 58.6 515
09:46:49 18 1003 213 10 NW 0 59.2 520
09:49:51 19 1003 211 3 NO 0 59.2 518
09:52:49 19 1003 209 6 S 0 59.1 519
09:55:48 19 1004 208 13 N 0 56.8 514
09:58:50 19 1004 204 8 NW 0 56.8 512
10:01:49 19 1003 200 7 W 0 57.8 504
10:04:48 19 1003 199 7 SW 0 57.2 506
10:07:47 19 1004 202 10 N 0 58.1 509
10:10:49 19 1004 201 6 NW 0 57.1 512
10:13:49 19 1003 203 8 NW 0 56.7 509
10:16:48 19 1004 203 7 N 0 55.9 507
10:19:48 19 1004 202 3 NW 0 56.3 509
10:22:48 19 1003 202 5 SW 0 56 512
10:25:48 19 1004 204 9 W 0 55.2 512
10:28:48 19 1004 204 9 NW 0 55.3 506
10:31:48 19 1004 206 2 O 0 55.9 500
10:34:48 19 1003 208 5 N 0 54.9 501
10:37:48 20 1004 211 2 NO 0 55 503
10:40:49 20 1004 213 9 NW 0 54.9 506
10:43:47 20 1004 211 5 N 0 54.1 509
10:46:48 20 1003 212 9 W 0 54.5 506
10:49:47 20 1004 213 7 NO 0 53.7 509
10:52:47 20 1004 209 5 W 0 53.1 512
10:55:48 20 1004 206 8 N 0 53.6 509
10:58:49 20 1003 207 2 NW 0 53.4 509
11:01:47 20 1004 207 14 O 0 54.1 494
11:04:48 20 1004 203 6 NO 0 54.1 497
11:07:51 20 1004 203 11 NO 0 53.4 494
11:10:50 20 1004 205 2 SO 0 55.6 506
11:13:48 20 1004 205 6 NW 0 55.2 504
11:16:48 20 1004 206 20 N 0 53.2 502
11:19:49 20 1003 207 6 NW 0 53.5 495
11:22:47 20 1004 207 10 O 0 53.4 489
11:25:47 21 1004 207 14 NO 0 54.4 488
11:28:49 20 1004 207 5 N 0 53.6 486
11:31:47 21 1004 208 4 S 0 54.3 494
11:34:49 20 1004 209 9 NW 0 55.3 490
11:37:48 21 1004 211 11 W 0 53.8 488
11:40:47 21 1004 206 9 W 0 53.9 483
11:43:47 21 1004 212 2 S 0 53.1 490
11:46:49 21 1004 214 8 N 0 54 495
11:49:49 21 1004 220 3 SO 0 53.8 495
11:52:49 21 1004 223 4 N 0 53.5 486
11:55:46 22 1004 223 9 N 0 51.8 480
11:58:49 22 1004 224 10 NW 0 50.5 477
12:01:32 20 1004 225 9 NW 0 43.5 474
12:04:48 23 1004 224 14 NO 0 46.5 480
12:07:49 23 1004 225 11 0 45.9 488
12:10:49 23 1004 224 6 NW 0 47.2 492
12:13:50 23 1004 220 11 NO 0 46.1 486
12:16:49 23 1004 225 4 NW 0 45.2 471
12:19:48 23 1005 226 8 W 0 46.1 469
12:22:49 24 1004 223 9 N 0 47.5 469
12:25:48 24 1004 214 2 SO 0 46.5 476
12:28:47 23 1005 212 14 N 0 46.1 479
12:31:34 22 1005 216 9 N 0 40 475
12:34:48 23 1004 222 8 W 0 47 471
12:37:46 24 1004 218 10 0 47.1 471
12:40:51 23 1004 222 5 NW 0 45.2 469
12:43:48 24 1004 223 10 N 0 45 466
12:46:49 24 1005 220 6 NW 0 44.1 468
12:49:48 24 1004 222 7 SO 0 43.1 475
12:52:47 24 1005 221 9 SW 0 43.8 474
12:55:45 25 1005 220 7 N 0 41.7 463
12:58:45 25 1004 224 10 0 41.4 465
13:01:49 24 1005 218 2 NO 0 41.6 471
13:04:49 23 1005 211 6 NW 0 43 471
13:07:33 23 1005 220 11 N 0 40 471
13:10:46 23 1005 224 10 0 44.9 471
13:13:48 23 1004 226 5 NO 0 43 475
13:16:47 24 1005 219 2 S 0 42.6 471
13:19:50 24 1005 223 11 W 0 43.2 474
13:22:49 23 1005 226 4 NW 0 43.5 462
13:25:48 24 1005 221 7 NW 0 43.1 465
13:28:49 24 1004 219 1 S 0 43.9 466
13:31:50 25 1004 219 9 NW 0 42.2 468
13:34:48 26 1005 223 7 W 0 42 468
13:37:51 27 1005 224 2 W 0 40.6 474
13:40:32 24 1004 222 9 NW 0 40 468
13:43:49 25 1005 220 9 NW 0 38 465
13:46:48 24 1004 223 4 NW 0 39.1 460
13:49:50 24 1005 224 9 W 0 39 462
13:52:48 24 1005 227 1 O 0 38.5 462
13:55:50 25 1005 229 18 NW 0 40.4 465
13:58:47 25 1005 222 9 N 0 40.3 462
14:01:47 24 1005 226 9 N 0 39.7 457
14:04:49 23 1005 225 15 NW 0 40.9 454
14:07:50 23 1005 233 2 S 0 44.5 459
14:10:48 24 1005 232 13 N 0 41.3 460
14:13:48 25 1005 233 10 W 0 40.8 459
14:16:48 26 1004 237 2 S 0 40.9 456
14:19:49 28 1005 238 3 NW 0 38.8 456
14:22:48 28 1005 239 5 NW 0 33.2 459
14:25:48 28 1004 228 10 W 0 33.2 456
14:28:49 27 1005 232 3 0 35.6 460
14:31:48 28 1005 241 2 S 0 34.8 456
14:34:51 29 1005 241 3 NW 0 34.4 456
14:37:50 28 1005 227 2 NW 0 33.3 448
14:40:48 26 1004 224 8 N 0 35.5 448
14:43:47 25 1005 242 5 W 0 37.2 450
14:46:46 26 1004 243 1 O 0 38.3 457
14:49:32 26 1005 243 11 NW 0 40 460
14:52:48 27 1005 243 8 S 0 35.6 456
14:55:50 26 1006 233 5 NW 0 37.4 451
14:58:50 25 1005 240 6 NW 0 37.9 448
15:01:34 25 1005 244 2 NW 0 40 448
15:04:45 25 1005 244 3 NW 0 41.1 445
15:07:50 26 1005 244 4 SW 0 39.2 445
15:10:48 27 1005 244 7 SO 0 35.1 445
15:13:50 28 1005 245 1 NW 0 34.7 445
15:16:48 27 1005 245 6 W 0 31.6 444
15:19:48 27 1005 245 2 NW 0 31.7 449
15:22:48 27 1005 245 5 0 33.8 451
15:25:47 28 1005 244 6 W 0 35.2 451
15:28:48 27 1005 246 11 NW 0 34.9 450
15:31:48 26 1005 245 5 NW 0 36 442
15:34:49 26 1006 238 5 0 36.8 445
15:37:51 26 1005 233 3 NW 0 36.7 445
15:40:49 25 1005 229 10 SW 0 36.5 454
15:43:47 24 1006 229 3 NO 0 38.7 451
15:46:49 23 1005 230 5 SW 0 41.1 446
15:49:50 24 1006 245 3 NW 0 41.7 444
15:52:47 24 1005 230 0 NW 0 41.1 447
15:55:48 24 1005 227 14 NW 0 40.1 442
15:58:48 24 1006 235 7 N 0 38.8 445
16:01:48 24 1005 244 3 NO 0 40.2 445
16:04:50 24 1006 246 2 NW 0 40.6 442
16:07:46 26 1005 247 2 O 0 40.9 445
16:10:48 27 1005 229 3 W 0 35.6 445
16:13:49 26 1006 246 18 NW 0 35.2 451
16:16:49 26 1005 247 4 NW 0 35.2 442
16:19:49 26 1006 247 8 NW 0 36.3 442
16:22:48 26 1005 247 2 S 0 37.6 463
16:25:49 27 1005 247 2 NW 0 35.3 466
16:28:48 27 1005 247 3 W 0 35 460
16:31:47 28 1005 247 4 W 0 35.6 453
16:34:50 29 1005 247 9 NW 0 33.3 454
16:37:49 29 1005 247 9 NO 0 32.3 457
16:40:46 27 1006 247 8 N 0 31.5 459
16:43:49 26 1005 234 8 N 0 33.5 451
16:46:48 25 1005 247 11 W 0 34.7 448
16:49:50 25 1006 247 9 N 0 35.6 442
16:52:49 24 1005 243 13 NW 0 36 445
16:55:50 25 1005 247 8 NW 0 36.6 442
16:58:49 26 1005 247 3 NW 0 36.1 448
17:01:49 27 1005 247 7 N 0 33 451
17:04:52 27 1006 247 9 NW 0 32.9 451
17:07:49 27 1005 247 12 NW 0 33.1 407
17:10:47 27 1005 247 5 NW 0 32.7 410
17:13:48 27 1005 247 4 NW 0 31.8 407
17:16:47 27 1004 247 10 SW 0 32.1 410
17:19:48 27 1005 247 1 SO 0 31.3 412
17:22:47 27 1005 247 7 N 0 32.5 407
17:25:48 28 1005 247 11 NW 0 30.5 409
17:28:47 28 1005 247 8 W 0 29.4 413
17:31:48 27 1004 247 3 SO 0 29.8 430
17:34:48 28 1006 247 4 NW 0 30.8 443
17:37:48 28 1006 247 5 NW 0 31 451
17:40:47 28 1005 247 5 NW 0 29.5 459
17:43:49 28 1006 247 4 W 0 29.9 456
17:46:46 27 1005 247 4 S 0 29.6 471
17:49:49 27 1005 247 7 NW 0 29.6 480
17:52:49 27 1006 247 9 NW 0 30.2 492
17:55:48 27 1005 247 2 O 0 30.1 503
17:58:46 27 1005 246 1 NO 0 31.1 506
18:01:50 28 1005 247 9 O 0 28.1 508
18:04:49 27 1005 247 5 SW 0 28.4 510
18:07:48 27 1005 247 6 NO 0 29.7 521
18:10:50 28 1005 247 3 SO 0 30.3 521
18:13:50 29 1005 247 4 NO 0 28.3 527
18:16:49 29 1005 247 10 W 0 26.9 521
18:19:49 28 1005 247 4 W 0 27.5 518
18:22:51 28 1005 247 3 NW 0 28.8 509
18:25:50 28 1005 247 4 NW 0 29.6 511
18:28:51 28 1005 247 7 N 0 29.3 510
18:31:47 27 1005 247 0 N 0 28.6 510
18:34:50 27 1006 247 15 NW 0 29.7 506
18:37:50 27 1005 247 4 NW 0 30.5 509
18:40:48 26 1005 247 7 O 0 30.6 501
18:43:48 26 1005 247 16 N 0 30.7 495
18:46:47 27 1006 247 11 N 0 30.7 491
18:49:50 25 1005 247 13 NW 0 30.4 500
18:52:32 25 1006 246 6 NW 0 40 494
18:55:48 23 1005 224 6 N 0 34.9 494
18:58:49 23 1005 233 8 NW 0 36 488
19:01:49 22 1006 221 10 N 0 37.5 474
19:04:50 22 1005 226 6 NW 0 38 468
19:07:48 22 1005 216 6 O 0 38.5 471
19:10:47 22 1005 213 10 N 0 38.7 474
19:13:49 22 1006 217 10 NW 0 39.2 477
19:16:50 22 1006 218 11 NW 0 39.6 472
19:19:50 22 1006 215 7 NW 0 40.1 465
19:22:48 22 1006 212 4 NO 0 40.4 463
19:25:49 22 1005 231 9 NW 0 40.9 465
19:28:49 22 1006 219 5 NW 0 40.7 468
19:31:49 21 1006 207 9 NO 0 41.2 471
19:34:46 21 1005 205 11 N 0 41.7 463
19:37:49 21 1005 203 19 W 0 41.5 466
19:40:50 21 1005 200 13 NW 0 41.8 466
19:43:49 21 1006 199 13 NW 0 42.3 462
19:46:48 21 1005 201 9 SW 0 42 460
19:49:47 21 1006 203 3 N 0 42.2 459
19:52:50 21 1006 205 3 NW 0 42.7 459
19:55:49 21 1006 206 5 SO 0 43.5 459
19:58:48 21 1006 208 7 SO 0 43.8 457
20:01:47 21 1006 207 6 N 0 43.8 456
20:04:49 21 1006 206 2 S 0 44.2 454
20:07:50 20 1006 203 3 NW 0 44.6 448
20:10:51 20 1006 201 6 NW 0 45 442
20:13:49 20 1006 197 5 NW 0 45.2 436
20:16:49 20 1005 192 12 W 0 44.9 442
20:19:48 20 1006 186 7 W 0 45 440
20:22:48 20 1005 184 5 W 0 45.5 442
20:25:50 20 1006 183 1 SW 0 45.8 442
20:28:49 20 1006 185 2 NW 0 46.3 448
20:31:46 20 1006 184 7 N 0 46.8 450
20:34:50 20 1006 182 5 NW 0 46.7 448
20:37:47 20 1006 181 4 N 0 46.6 448
20:40:50 20 1006 179 2 O 0 47 451
20:43:46 19 1005 177 7 N 0 47.8 447
20:46:46 19 1006 175 4 W 0 47.9 451
20:49:48 19 1005 135 10 NW 0 47.4 442
20:52:49 19 1006 132 2 N 0 47.9 440
20:55:50 19 1006 86 2 NW 0 48.6 442
20:58:48 19 1006 164 1 NW 0 48.9 445
21:01:49 19 1006 156 3 N 0 49.2 451
21:04:50 19 1006 146 1 NW 0 49.5 451
21:07:48 19 1006 137 5 N 0 49.6 442
21:10:49 19 1006 128 2 N 0 49.7 447
21:13:47 19 1006 120 1 N 0 50.1 450
21:16:49 18 1006 111 3 NO 0 50.4 456
21:19:49 18 1006 101 9 W 0 50.8 465
21:22:47 18 1006 91 0 NO 0 51.1 474
21:25:48 18 1006 85 2 NO 0 51.3 483
21:28:48 18 1006 82 1 NW 0 51.6 489
21:31:49 18 1006 77 0 O 0 51.8 494
21:34:48 18 1006 69 0 NW 0 51.9 503
21:37:49 18 1006 61 0 O 0 52.6 504
21:40:48 18 1006 55 0 O 0 52.6 512
21:43:48 18 1006 50 0 W 0 52.7 507
21:46:49 18 1006 45 3 NW 0 53.9 516
21:49:45 18 1006 41 0 W 0 54.5 515
21:52:48 18 1006 35 1 NO 0 54.9 527
21:55:46 17 1006 30 0 S 0 54.6 536
21:58:46 17 1006 25 0 S 0 54.5 540
22:01:47 17 1006 20 0 S 0 54.5 530
22:04:47 17 1006 15 0 S 0 54.9 524
22:07:47 17 1006 11 0 S 0 54.9 522
22:10:46 16 1006 9 0 S 0 55.6 524
22:13:46 16 1006 7 0 O 0 57.3 524
22:16:48 16 1006 5 0 NO 0 58.7 545
22:19:49 17 1006 4 0 NW 0 58.7 553
22:22:47 17 1006 4 1 S 0 58.1 560
22:25:48 17 1006 3 0 O 0 58 552
22:28:48 17 1006 3 0 W 0 58.2 542
22:31:54 17 1006 3 0 O 0 58.2 539
22:34:48 16 1006 0 0 O 0 58.3 548
22:37:46 16 1006 0 0 N 0 58.4 556
22:40:47 16 1007 0 0 O 0 58.4 562
22:43:48 16 1006 0 1 NO 0 58.3 565
22:46:47 16 1006 0 3 W 0 58.4 566
22:49:47 16 1006 0 0 NO 0 58.4 564
22:52:48 16 1006 0 1 SO 0 58.4 571
22:55:46 16 1007 0 0 S 0 58.5 586
22:58:50 16 1006 0 0 SO 0 58.6 597
23:01:47 16 1007 0 0 NO 0 59 605
23:04:47 16 1007 0 0 N 0 59.1 612
23:07:48 16 1007 0 2 NW 0 59.1 612
23:10:50 16 1007 0 3 W 0 59.3 616
23:13:47 16 1007 0 0 NO 0 59.5 612
23:16:50 16 1008 0 1 NW 0 59.6 595
23:19:45 16 1007 0 0 O 0 59.4 524
23:22:48 16 1007 0 0 O 0 59.9 495
23:25:46 15 1008 0 0 O 0 60.1 488
23:28:46 15 1008 0 0 O 0 60.1 486
23:31:47 15 1007 0 0 O 0 60.4 483
23:34:46 15 1007 0 0 O 0 60.7 480
23:37:46 15 1007 0 0 NO 0 61.2 486
23:40:47 15 1007 0 4 NO 0 61.5 486
23:43:48 15 1007 0 4 NW 0 61.4 495
23:46:46 15 1007 0 0 W 0 61.2 485
23:49:47 15 1008 0 0 SW 0 61.4 480
23:52:48 15 1008 0 0 SO 0 61.3 481
23:55:48 15 1008 0 0 SO 0 61.8 483
23:58:47 15 1008 0 0 SO 0 62.1 480

Letzte Änderung : 22-Jul-2022
Copyright Jens Köhler, Wolfsburg, Obere Dorfstraße 10d